User: anonymous   Login
Location: Bonn
(50.7330°N, 7.1000°E)
Time: 14:04:04
(UTC+02:00)
Language:

Iridium 84 - Orbit

View from above orbital plane
View from above orbital plane
View from above satellite
View from above satellite

Ground track
Ground track

The orbit data is extracted from the following two-line orbital elements,

1 25530U 98066D   17234.63431115 +.00000187 +00000-0 +59654-4 0  9994
2 25530 086.3982 322.1841 0002209 096.2143 263.9304 14.34219427986458
Epoch (UTC): 22 August 2017 15:13:24
Eccentricity: 0.0002209
inclination: 86.3982°
perigee height: 776 km
apogee height: 779 km
right ascension of ascending node: 322.1841°
argument of perigee: 96.2143°
revolutions per day: 14.34219427
mean anomaly at epoch: 263.9304°
orbit number at epoch: 98645

The dashed part of the orbit path shows where the satellite is in the earth's shadow,  

DLR